Weather History for KBGM - November, 2013

Change the Weather History Date:

Wednesday, November 13, 2013

  Actual Average Record
Temperature  
Mean Temperature 26 °F 39 °F  
Max Temperature 33 °F 46 °F 65 °F (1964)
Min Temperature 18 °F 32 °F 14 °F (1986)
Degree Days  
Heating Degree Days 39 26  
Month to date heating degree days 347 308  
Since 1 July heating degree days 1031 1080  
Cooling Degree Days 0 0  
Month to date cooling degree days 0 0  
Year to date cooling degree days 480 381  
Moisture  
Dew Point 16 °F    
Average Humidity 66    
Maximum Humidity 84    
Minimum Humidity 47    
Precipitation  
Precipitation 0.01 in 0.10 in 0.63 in (1970)
Month to date precipitation 1.19 1.40  
Year to date precipitation 37.20 34.57  
Snow  
Snow 0.20 in 0.20 in 4.00 in (1995)
Month to date snowfall 2.0 1.6  
Since 1 July snowfall 2.0 2.6  
Since 1 September snowfall 2.0 2.6  
Snow Depth 1.00 in    
Sea Level Pressure  
Sea Level Pressure 30.31 in    
Wind  
Wind Speed 9 mph (WNW)    
Max Wind Speed 17 mph    
Max Gust Speed 23 mph    
Visibility 9 miles    
Events Snow    
T = Trace of Precipitation, MM = Missing Value Source: NWS Daily Summary

Daily Weather History Graph

Daily Weather History Graph

Search for Another Location

Airport or City:

Trip Planner

Search our weather history database for the weather conditions in past years. The results will help you decide how hot, cold, wet, or windy it might be!

Date:

Astronomy

Nov. 13, 2013 Rise Set
Actual Time 6:52 AM EST 4:43 PM EST
Civil Twilight 6:22 AM EST 5:13 PM EST
Nautical Twilight 5:48 AM EST 5:47 PM EST
Astronomical Twilight 5:15 AM EST 6:20 PM EST
Moon 2:33 PM EST (11/13) 2:38 AM EST (11/13)
Length of Visible Light 10h 51m
Length of Day
9h 51m
Waxing Gibbous, 84% of the Moon is Illuminated
Nov 13
Waxing Gibbous
Nov 17
Full
Nov 25
Last Quarter
Dec 2
New
Dec 9
First Quarter

Hourly Weather History & Observations

Time (EST) Temp. Windchill Dew Point Humidity Pressure Visibility Wind Dir Wind Speed Gust Speed Precip Events Conditions
12:26 AM 21.2 °F 12.6 °F 17.6 °F 86% 30.25 in 10.0 mi NW 6.9 mph - 0.00 in   Mostly Cloudy
12:48 AM 21.2 °F 16.4 °F 17.6 °F 86% 30.26 in 10.0 mi NW 3.5 mph - 0.00 in   Mostly Cloudy
12:53 AM 21.0 °F 13.4 °F 18.0 °F 88% 30.33 in 10.0 mi NW 5.8 mph - 0.00 in   Mostly Cloudy
1:53 AM 21.0 °F 11.4 °F 17.1 °F 85% 30.33 in 9.0 mi NNW 8.1 mph - 0.00 in   Overcast
2:14 AM 21.2 °F 10.1 °F 17.6 °F 86% 30.26 in 8.0 mi NNW 10.4 mph - 0.00 in Snow Light Snow
2:27 AM 21.2 °F 10.9 °F 17.6 °F 86% 30.26 in 2.5 mi NNW 9.2 mph - 0.00 in Snow Light Snow
2:36 AM 21.2 °F 10.9 °F 17.6 °F 86% 30.26 in 1.5 mi NNW 9.2 mph - 0.00 in Snow Light Snow
2:46 AM 21.2 °F 11.7 °F 17.6 °F 86% 30.26 in 3.0 mi NNW 8.1 mph - 0.00 in Snow Light Snow
2:53 AM 21.0 °F 11.4 °F 18.0 °F 88% 30.34 in 7.0 mi NNW 8.1 mph - 0.00 in   Overcast
3:06 AM 21.2 °F 10.1 °F 17.6 °F 86% 30.27 in 1.8 mi NNW 10.4 mph - 0.00 in Snow Light Snow
3:16 AM 21.2 °F 9.5 °F 17.6 °F 86% 30.26 in 3.0 mi NW 11.5 mph - 0.00 in Snow Light Snow
3:53 AM 19.9 °F 7.3 °F 16.0 °F 85% 30.34 in 10.0 mi NW 12.7 mph 18.4 mph 0.01 in   Mostly Cloudy
4:09 AM 19.4 °F 7.2 °F 15.8 °F 86% 30.27 in 10.0 mi NNW 11.5 mph 23.0 mph N/A   Mostly Cloudy
4:29 AM 19.4 °F 6.6 °F 14.0 °F 80% 30.27 in 6.0 mi NW 12.7 mph 20.7 mph 0.00 in Snow Light Snow
4:53 AM 19.0 °F 8.2 °F 14.0 °F 81% 30.35 in 10.0 mi NNW 9.2 mph - 0.00 in   Scattered Clouds
5:53 AM 19.0 °F 11.1 °F 14.0 °F 81% 30.37 in 9.0 mi WNW 5.8 mph - N/A   Mostly Cloudy
6:53 AM 19.0 °F 10.0 °F 14.0 °F 81% 30.38 in 7.0 mi NW 6.9 mph - 0.00 in Snow Light Snow
7:25 AM 19.4 °F 10.4 °F 14.0 °F 80% 30.31 in 10.0 mi NW 6.9 mph - 0.00 in   Scattered Clouds
7:53 AM 19.9 °F 12.1 °F 14.0 °F 78% 30.40 in 8.0 mi WNW 5.8 mph - 0.00 in   Partly Cloudy
8:14 AM 19.4 °F 9.5 °F 14.0 °F 80% 30.32 in 10.0 mi West 8.1 mph - N/A   Mostly Cloudy
8:53 AM 21.9 °F 13.4 °F 15.1 °F 75% 30.40 in 10.0 mi WNW 6.9 mph - N/A   Mostly Cloudy
9:53 AM 23.0 °F 12.4 °F 14.0 °F 68% 30.41 in 10.0 mi NW 10.4 mph - N/A   Mostly Cloudy
10:05 AM 24.8 °F 14.0 °F 14.0 °F 64% 30.34 in 10.0 mi WNW 11.5 mph 18.4 mph N/A   Scattered Clouds
10:49 AM 26.6 °F 17.5 °F 15.8 °F 64% 30.33 in 10.0 mi NW 9.2 mph - N/A   Mostly Cloudy
10:53 AM 26.1 °F 16.8 °F 15.1 °F 63% 30.41 in 10.0 mi WNW 9.2 mph - N/A   Mostly Cloudy
11:53 AM 28.0 °F 18.6 °F 16.0 °F 61% 30.38 in 10.0 mi WNW 10.4 mph - N/A   Mostly Cloudy
12:32 PM 28.4 °F 20.4 °F 15.8 °F 59% 30.30 in 10.0 mi NW 8.1 mph 17.3 mph N/A   Partly Cloudy
12:53 PM 30.0 °F 21.1 °F 17.1 °F 59% 30.36 in 10.0 mi WNW 10.4 mph - N/A   Mostly Cloudy
1:53 PM 30.0 °F 23.2 °F 16.0 °F 56% 30.34 in 10.0 mi NW 6.9 mph - N/A   Mostly Cloudy
2:53 PM 33.1 °F 26.1 °F 16.0 °F 50% 30.32 in 10.0 mi WNW 8.1 mph - N/A   Mostly Cloudy
3:53 PM 32.0 °F 23.6 °F 18.0 °F 56% 30.31 in 10.0 mi West 10.4 mph - N/A   Clear
4:53 PM 30.0 °F 24.1 °F 17.1 °F 59% 30.30 in 10.0 mi WSW 5.8 mph - N/A   Clear
5:53 PM 28.9 °F 21.9 °F 17.1 °F 61% 30.30 in 10.0 mi SW 6.9 mph - N/A   Clear
6:53 PM 28.0 °F 19.3 °F 18.0 °F 66% 30.29 in 10.0 mi WSW 9.2 mph - N/A   Clear
7:53 PM 27.0 °F 19.5 °F 18.0 °F 69% 30.27 in 10.0 mi WSW 6.9 mph - N/A   Clear
8:53 PM 28.0 °F 20.0 °F 18.0 °F 66% 30.26 in 10.0 mi SW 8.1 mph - N/A   Clear
9:53 PM 28.0 °F 18.6 °F 17.1 °F 63% 30.24 in 10.0 mi WSW 10.4 mph - N/A   Clear
10:53 PM 28.0 °F 18.1 °F 17.1 °F 63% 30.21 in 10.0 mi SW 11.5 mph - N/A   Clear
11:53 PM 27.0 °F 17.3 °F 16.0 °F 63% 30.19 in 10.0 mi SW 10.4 mph - N/A   Clear